This is the latest recevied weather packets stored in our database for station/object E23XBQ-1. If no packets are shown the sender has not sent any weather packets the latest 10 day(s).
| Time | Temp. | Humidity | Pressure | Rain* | Wind** | Luminosity | Snow |
|---|---|---|---|---|---|---|---|
| 1777604021 | 32.22° C | 58% | 974 hPa | - | - | 0 W/m² | - |
| 1777603397 | 31.67° C | 63% | 974 hPa | - | - | 0 W/m² | - |
| 1777602772 | 31.11° C | 64% | 974 hPa | - | - | 0 W/m² | - |
| 1777602148 | 30.56° C | 68% | 974 hPa | - | - | 0 W/m² | - |
| 1777601523 | 30.56° C | 67% | 974 hPa | - | - | 0 W/m² | - |
| 1777600898 | 30.56° C | 71% | 974 hPa | - | - | 0 W/m² | - |
| 1777600274 | 30° C | 72% | 974 hPa | - | - | 0 W/m² | - |
| 1777599649 | 28.89° C | 76% | 974 hPa | - | - | 0 W/m² | - |
| 1777599025 | 28.89° C | 80% | 974 hPa | - | - | 0 W/m² | - |
| 1777598400 | 28.33° C | 83% | 974 hPa | - | - | 0 W/m² | - |
| 1777597775 | 28.33° C | 90% | 974 hPa | - | - | 0 W/m² | - |
| 1777597151 | 27.22° C | 99% | 974 hPa | - | - | 0 W/m² | - |
| 1777596526 | 26.67° C | 95% | 973 hPa | - | - | 0 W/m² | - |
| 1777595901 | 26.67° C | 99% | 974 hPa | - | - | 0 W/m² | - |
| 1777595276 | 26.11° C | 99% | 973 hPa | - | - | 0 W/m² | - |
| 1777594652 | 25.56° C | 99% | 973 hPa | - | - | 0 W/m² | - |
| 1777594027 | 25° C | 99% | 973 hPa | - | - | 0 W/m² | - |
| 1777593403 | 23.89° C | 99% | 973 hPa | - | - | 0 W/m² | - |
| 1777592779 | 23.33° C | 99% | 973 hPa | - | - | 0 W/m² | - |
| 1777592154 | 22.78° C | 99% | 973 hPa | - | - | 0 W/m² | - |
| 1777591529 | 22.22° C | 99% | 973 hPa | - | - | 0 W/m² | - |
| 1777590904 | 22.22° C | 99% | 973 hPa | - | - | 0 W/m² | - |
| 1777590280 | 22.22° C | 99% | 973 hPa | - | - | 0 W/m² | - |
| 1777589652 | 22.22° C | 99% | 973 hPa | - | - | 0 W/m² | - |
| 1777589017 | 22.22° C | 99% | 973 hPa | - | - | 0 W/m² | - |
* Rain since midnight (hover to see other rain measurements)
** Current wind speed in m/s (hover to see current wind gust speed)